sat.trackr.live / text

‹ back to catalog

STARLINK-33856

NORAD 63638 · 2025-083E

PAYLOAD ACTIVE UNKNOWN

§ Identity

Operator
Country
US
Launch date
2025-04-25
Launch site
AFETR
Launch vehicle
Mass (kg)
RCS (m²)

Purposes: comms

External: N2YO · Heavens-Above · Gunter

§ Orbital elements

Epoch: 2026-05-24T21:29:43.603584Z

Period
94.27 min
Inclination
42.9990°
Eccentricity
0.0001009
Mean motion
15.27583186 rev/d
Perigee alt
482.3 km
Apogee alt
483.7 km
Semi-major
6,861.2 km
B*
4.8003e-4
RAAN
294.6599°
Arg perigee
257.0375°
Mean anomaly
103.0364°
Rev number
6,172

§ Raw data

STARLINK-338561 63638U 25083E   26144.89564356  .00012972  00000+0  48003-3 0  99952 63638  42.9990 294.6599 0001009 257.0375 103.0364 15.27583186 61723

JSON: /api/v1/satellites/63638 · /tle

For live sub-satellite position, see the globe view (requires WebGL).

§ Visibility from observer

Set your observer location to see the next 7 days of passes ≥ 10°. The values pass through the URL so the page stays shareable.

No JS? Fill the form by hand. The geolocation button needs JavaScript.